Back to catalog

OPS 9343

IDSCS 21

LostMilitaryMEO
NORAD 3286·PAYLOAD·🇺🇸 United States

Launched Jun 13, 1968 from Cape Canaveral Space Force Station

Loading…

Next Passes (next 24 hours)

TLE

StaleSource: Space-Track

Epoch: Jul 25, 2026, 03:46 UTC

1  3286U 68050C   26206.15746587 -.00000115  00000-0  00000+0 0  9994
2  3286   7.2953  51.5424 0019267 150.6601  39.9433  1.07758681 47861

Track OPS 9343 in real time with AllMySat

Download on the App Store